Starlink 32481

operational
NORAD ID: 62320 Int'l Des: 2024-239 Owner: SPXS Country: US Constellation: starlink
LEOCIRCULAR

Starlink 32481について

説明を読み込み中...

リアルタイム位置

3D地球を読み込み中...

次回通過

高度履歴

Altitude vs Time

uPlot chart will show altitude changes over time

軌道要素

1 62320U 24239V 25307.54030855 .00038980 00000-0 13212-2 0 9999
2 62320 53.1634 46.8223 0001745 93.9580 266.1620 15.30201482 50254
Epoch: Nov 3, 2025 • Age: 17 hours

現在のステータス

高度 485.8 km
速度 7.62 km/s
衛星直下点 -32.37°S, 123.95°E
打ち上げ日 Dec 13, 2024
運用期間 0.8 years
タイプ internet

技術仕様

分類 Payload
質量 730.00 kg
乾燥質量 700.00 kg
総質量 730.00 kg
長さ 0.30 m
直径 4.10 m
スパン 29.00 m
形状 Box + pan
製造者 SPXS
バスタイプ Starlink V2M
フェーズステータス In Orbit
所有者/国 SPXS/US

大規模コンステレーション

Loading constellations...